Regional Weather Roundup
Issued by NWS Grand Forks, ND

Home | Current Version | Previous Version | Text Only | Print | Product List | Glossary Off
Versions: 1 2 3 4 5 6 7 8 9 10 11 12 13 14 15 16 17 18 19 20 21 22 23 24 25 26 27 28 29 30 31 32 33 34 35 36 37 38 39 40 41 42 43 44 45 46 47 48 49 50

000
ASUS43 KFGF 180131
RWRFGF
PRAIRIE TO PINES  WEATHER ROUNDUP
NATIONAL WEATHER SERVICE EASTERN NORTH DAKOTA/GRAND FORKS ND
800 PM CDT FRI APR 17 2015

 **SATELLITE DATA USED TO AUGMENT SKY COVER AT AUTOMATED STATIONS**
 *****  WEATHER ACROSS EASTERN NORTH DAKOTA  *****

CITY           SKY/WX    TMP DP  RH WIND       PRES   REMARKS
GRAND FORKS    FAIR      59  18  20 N13       30.07R
GRAND FRKS AFB FAIR      59  18  20 NE13      30.08R
GRAND FRKS NWS   N/A     57 N/A N/A N14         N/A
DEVILS LAKE    FAIR      57  27  30 NE12      30.09R
FARGO          FAIR      68  27  21 N22G33    30.02R
WAHPETON ARPT  FAIR      63   9  12 W6        30.03S
$$

 ***** WEATHER ACROSS CENTRAL AND WESTERN NORTH DAKOTA  *****

CITY           SKY/WX    TMP DP  RH WIND       PRES   REMARKS
BISMARCK       PTCLDY    68  29  23 SE5       30.06S
MINOT          FAIR      59  24  26 N8        30.10R
JAMESTOWN      FAIR      67  24  19 N10       30.03R
MINOT AFB      FAIR      60  26  27 NE10      30.09R
GARRISON         N/A     64  31  28 NE10      30.07S
WILLISTON      CLEAR     66  26  22 NE10      30.07S
DICKINSON      PTCLDY    62  22  21 SE7       30.06S
HETTINGER      MOCLDY    62  24  23 S3        30.09S
$$

 *****  OTHER AIRPORT OBSERVATIONS IN OUR AREA  *****

CITY           SKY/WX    TMP DP  RH WIND       PRES   REMARKS
WALHALLA       FAIR      54  25  32 N9G16     30.12R
GRAFTON AIRPOR FAIR      57  27  30 N15       30.10R
VALLEY CITY AR FAIR      64  25  22 N9        30.04R
CANDO          FAIR      55  28  35 E13       30.11R
CAVALIER APRT  FAIR      55  27  33 N10G17    30.11R
GWINNER        CLEAR     64  23  20 NW3       30.05S
ROLLA          FAIR      54  28  37 NE14      30.12R
 ***** THE ABOVE OBSERVATIONS ARE NON NWS ARE NOT QUALITY
       CONTROLLED AND MAY MIS-REPORT RAIN FOR SNOW...
$$

  *****  WEATHER ACROSS NORTHERN MINNESOTA  *****

CITY           SKY/WX    TMP DP  RH WIND       PRES   REMARKS
FLAG ISLAND    FAIR      48  30  49 NE16      30.09R
WARROAD        FAIR      52  30  43 NW8       30.10R
ROSEAU         FAIR      52  34  50 N12       30.10R
HALLOCK        FAIR      55  28  35 NE14G22   30.09R
THF RVR FALLS  FAIR      57  25  28 N13       30.08R
BAUDETTE       FAIR      53  28  38 NW10      30.06R
WASKISH        FAIR      55  27  33 CALM      30.06R
CROOKSTON      FAIR      57  19  23 N8        30.07R
STEPHEN NDAWN    N/A     59  28  31 NE15        N/A
GREENBUSH NDAW   N/A     55  30  38 VRB15       N/A
$$
  *****  WEATHER ACROSS CENTRAL AND WEST MINNESOTA  *****

CITY           SKY/WX    TMP DP  RH WIND       PRES   REMARKS
FOSSTON        FAIR      55  18  22 N12       30.06R
BEMIDJI        FAIR      59  24  26 N7        30.03R
PARK RAPIDS    FAIR      63  24  22 W8        30.00S
ELBOW LAKE     FAIR      63  21  20 W3        30.03S
WADENA         FAIR      59  27  29 SW5       30.02S
DETROIT LAKES  FAIR      64  30  27 N6G17     30.03R
MOORHEAD       FAIR      66  27  22 N18G28    30.03R
FERGUS FALLS   FAIR      64   7  10 W5        30.03S
MORRIS MN      FAIR      63  19  19 W5        30.04R HAZE
STAPLES        FAIR      63  19  19 SW3       30.02S
$$
  *****  WEATHER ELSEWHERE ACROSS MINNESOTA  *****

CITY           SKY/WX    TMP DP  RH WIND       PRES   REMARKS
DULUTH         FAIR      66  23  19 NW9       29.98S
INTRNTL FALLS  FAIR      57  22  25 N14G23    30.03R
ELY            FAIR      61  25  25 NW9G18    29.98R
CLOQUET        FAIR      64  14  14 NW5       30.00R
WHEATON        FAIR      63  25  23 SW3       30.05S
BRAINERD       FAIR      65  21  18 W5        30.01F
HIBBING        FAIR      64  23  21 W5        29.97S
ALEXANDRIA     FAIR      65  21  18 CALM      30.05F
SAINT CLOUD    FAIR      62  27  26 NW8       30.02S
MINNEAPOLIS    FAIR      68  27  21 NW9       30.01S
$$

  *****  WEATHER ACROSS SOUTH DAKOTA  *****

CITY           SKY/WX    TMP DP  RH WIND       PRES   REMARKS
SIOUX FALLS    MOCLDY    70  41  34 CALM      30.02S
BROOKINGS      FAIR      66  27  22 NE6       30.05S
WATERTOWN      FAIR      60  26  27 N6        30.06S
HURON          MOCLDY    66  29  24 N6        30.04S
SISSETON         N/A     64  20  18 CALM      30.03F
ABERDEEN       CLEAR     68  20  16 N5        30.05S HAZE
MITCHELL       CLOUDY    69  34  27 N7        30.04S
PIERRE         CLOUDY    65  35  33 CALM      30.05S
MOBRIDGE       PTCLDY    62  29  28 NE3       30.05S
RAPID CITY     CLOUDY    52  39  61 SW8       30.11F
$$

  *****  SOME WEATHER IN NEARBY STATES *****

CITY           SKY/WX    TMP DP  RH WIND       PRES   REMARKS
GLASGOW MT     CLEAR     67  25  20 S12       30.01F
GREAT FALLS MT SUNNY     67  26  21 S8        29.96F
CHEYENNE WY    LGT RAIN  34  32  92 N8        30.07R FOG
SCOTTSBLUFF NE LGT RAIN  45  45 100 NW17      30.03F FOG
OMAHA NE       MOCLDY    74  52  46 E6        29.98R
DES MOINES IA  CLOUDY    75  50  41 S5        29.99R
DAVENPORT IA   FAIR      71  44  37 W5        29.99R
CHICAGO IL     FAIR      69  45  41 SE6       29.98S
EAU CLAIRE WI  FAIR      65  35  33 NW6       29.99S
LA CROSSE WI   FAIR      68  47  46 CALM      29.97S
$$

  *****  SOME NATIONAL WEATHER *****

CITY           SKY/WX    TMP DP  RH WIND       PRES   REMARKS
LA GUARDIA NY  MOCLDY    66  52  60 NW5       29.92R
RALEIGH NC     MOCLDY    68  62  81 W3        30.00R
ATLANTA GA     LGT RAIN  63  60  90 E7        30.02R FOG
NEW ORLEANS LA CLOUDY    77  69  76 SW7       29.92R
OKLAHOMA CITY  CLOUDY    67  57  70 S8        29.95R
ALBUQUERQUE NM CLOUDY    52  19  27 NW12      30.01S
SALT LAKE CITY PTSUNNY   61  34  36 W7        30.01S
LOS ANGELES CA SUNNY     69  42  37 W22       29.95F
BOISE ID       SUNNY     71  24  17 NW10      30.01F
SEATTLE WA     MOSUNNY   63  41  44 N14       30.25S
$$

*** WEATHER ACROSS MANITOBA...SASKATCHEWAN AND ONTARIO ***
                ***ONTARIO***

CITY           SKY/WX    TMP DP  RH WIND       PRES   REMARKS
GERALDTON      MOCLDY    43  41  93 CALM      29.87F
THUNDER BAY    MOCLDY    66  27  22 W12G21    29.85R
SIOUX LOOKOUT  PTCLDY    41  30  65 N7        30.11R
TORONTO        PTCLDY    63  39  42 NW12      30.00R
BIG TROUT LK   CLEAR     37  30  75 N3        30.06R
PICKLE LAKE    PTCLDY    37  34  87 NW5       30.05R
DRYDEN         CLEAR     45  32  61 N9G17     30.10R
KENORA         CLEAR     48  30  49 N10G21    30.12R
$$
                *** MANITOBA***

CITY           SKY/WX    TMP DP  RH WIND       PRES   REMARKS
BRANDON        PTCLDY    54  34  47 E16       30.12S
DAUPHIN        CLEAR     50  34  53 E7        30.16F
ISLAND LAKE    PTCLDY    41  36  81 VRB2      30.11R
PILOT MOUND      N/A     52  30  43 NE13G18     N/A
THE PAS        MOCLDY    52  28  40 SE3       30.11F
THOMPSON       PTCLDY    48  28  46 NE9       30.10R
WINNIPEG       CLEAR     48  32  53 NE18      30.15R
LYNN LAKE      CLEAR     48  21  34 VRB2      30.07F
CHURCHILL      CLEAR     21  16  79 N15       30.16R WCI   8
GILLAM         CLEAR     39  28  65 VRB2      30.12R
$$
                ***SASKATCHEWAN***

CITY           SKY/WX    TMP DP  RH WIND       PRES   REMARKS
ESTEVAN        CLEAR     59  25  27 NE9       30.08F
KINDERSLEY     PTSUNNY   64  28  25 SE14G23   29.88F
LLOYDMINSTER   CLOUDY    61  28  29 S16G30    29.87F
PRINCE ALBERT  MOCLDY    55  23  28 SE9       30.04
REGINA         CLEAR     59  25  27 SE9       30.08F
YORKTON        CLEAR     55  23  28 E3        30.11F
N. BATTLEFORD  SUNNY     61  23  23 SE17G23   29.94F
LA RONGE       CLOUDY    50  27  40 SE6       30.05F
SASKATOON      PTCLDY    59  21  23 SE15      30.02F
SWIFT CURRENT  CLEAR     64  27  24 SE13G24   29.95F
$$
NOTE: THESE ARE AUTOMATED STATIONS WITH LIMITED QUALITY CONTROL
      "FAIR" INDICATES FEW OR NO CLOUDS BELOW 12,000 FEET WITH NO
      SIGNIFICANT WEATHER AND/OR OBSTRUCTIONS TO VISIBILITY.
      SKY/WX - SKY CONDITION AND SIGNIFICANT WEATHER.
      TMP - AIR TEMPERATURE.    DP   - DEWPOINT TEMPERATURE.
      RH  - RELATIVE HUMIDITY.  PRES - PRESSURE.
      HX  - HEAT INDEX.         WCI  - WIND CHILL INDEX.
$



USA.gov is the U.S. government's official web portal to all federal, state and local government web resources and services.